Weather in Krasnoe

Russia / Belgorod Oblast     50°55′58″N   38°40′52″E
temp.,
°C
wind,
m/s
gust,
m/s
humid.,
%
clouds,
%
prec.,
mm/h
press.,
hPa
HPBL,
m
16 june, wed
wed1600:00+17nnw228935 0.0 100911
03:00+16nnw22905 0.0 101011
06:00+18nw128948 0.3 101080
09:00+22wnw227593 0.3 1011518
12:00+25wsw2261100 0.0 10111334
15:00+25w3362100 1.6 10111218
18:00+24nne347612 1.1 1012516
21:00+19ne33910 1.2 101338
17 june, thu
thu1700:00+17nne36940 0.0 101497
03:00+16ne369656 0.0 1015131
06:00+17ne5109483 0.0 1016325
09:00+21ne6878100 0.0 1017715
12:00+24ne7968100 0.0 10181400
15:00+25ne896372 0.1 10181560
18:00+23ne811740 0.1 1019910
21:00+18ne714740 0.1 1021602
18 june, fri
fri1800:00+15ne513870 0.0 1022361
03:00+13ne412880 0.0 1023272
06:00+14ne613845 0.0 1024359
09:00+19ene711631 0.0 1025754
12:00+22ene79550 0.0 10251245
15:00+22ene78540 0.0 10241470
18:00+21ene68670 0.0 10241062
21:00+16ene412830 0.0 1026267
19 june, sat
sat1900:00+13ene37900 0.0 1026143
03:00+12ene34910 0.0 102775
06:00+13ene310860 0.0 1027299
09:00+18e69640 0.0 1027739
12:00+21e68520 0.0 10261141
15:00+23e67520 0.0 10251183
18:00+22e47640 0.0 10241000
21:00+16ene34840 0.0 102556
20 june, sun
sun2000:00+14ene34900 0.0 102560
03:00+13ene34920 0.0 102561
06:00+15ene38880 0.0 1025212
09:00+21e58650 0.0 1025584
12:00+24e675264 0.0 10241115
15:00+25e6752100 0.0 10221179
18:00+23e4866100 0.0 1022540
21:00+19ene3481100 0.0 102258